Terminal Aerodrome Forecast
Issued by NWS Chicago, IL

Home | Current Version | Previous Version | Graphics & Text | Print | Product List | Glossary On
Versions: 1 2 3 4 5 6 7 8 9 10 11 12 13 14 15 16 17 18 19 20 21 22 23 24 25 26
000
FTUS43 KLOT 250532
TAFRFD
TAF
KRFD 250532Z 2506/2606 34010KT 4SM -SN BKN012 OVC030
      TEMPO 2506/2509 1 1/2SM -SN BR
     FM250900 30014G21KT 2SM -SN BR OVC015
     FM251100 31016G24KT 4SM BR OVC020
     FM252200 29014G21KT P6SM SCT040
     FM260100 28008KT P6SM SCT100=

USA.gov is the U.S. government's official web portal to all federal, state and local government web resources and services.